SCP
-0 -0 -0 0 -0 -0 0 0 0 0 0 0 0 0 0 -0 -0 0 -0 0 0 0 0 0 0 0 0 0 0 0 0 0 0 0 0 0 0 0 0 0 0 0 0 0 0 0 -0 0 0 0 0 0 0 0
-0 0 0 0 0 0 0 0 0 0 0 0 0 0 0 0 0 0 0 0 0 0 0 0 0 -0 0 0 0 0 0 0 0 0 0 0 0 0 0 0 0 0 0 0 0 0 -0 -0 -0 -0 0 0 0 0
-0 0 0 0 0 0 0 0 0 0 0 0 0 0 0 0 0 0 0 0 0 0 0 -0 0 0 0 0 0 0 0 0 0 0 0 0 0 0 0 0 0 0 0 0 0 0 0 -0 0 0 0 0 0 0
-0 -0 -0 -0 -0 0 0 0 0 0 0 0 0 0 0 0 0 0 0 0 0 0 0 0 0 0 -0 0 0 0 0 0 0 0 0 0 0 0 0 0 0 0 0 0 -0 0 0 0 0 -0 0 0 -0 0
-0 -0 -0 -0 -0 0 0 -0 -0 0 0 0 0 0 0 0 0 0 0 0 0 0 0 0 0 0 0 0 0 0 0 0 0 0 0 0 0 0 0 0 0 0 0 0 0 0 0 0 -0 -0 0 0 -0 -0
-0 -0 -0 0 -0 -0 0 0 0 0 0 0 0 0 0 0 0 0 0 0 0 0 0 0 0 0 0 0 0 0 0 0 0 0 0 0 0 0 0 0 0 0 0 0 0 0 -0 0 0 -0 0 0 0 0
0 0 -0 0 -0 0 0 0 0 0 0 0 0 0 0 0 0 0 0 0 0 0 0 0 0 0 0 0 -0 0 0 0 0 0 0 0 0 0 0 0 0 0 0 0 0 0 -0 -0 -0 0 0 0 0 0
0 0 -0 -0 0 -0 0 0 0 0 0 0 0 0 0 0 0 0 0 0 0 0 0 0 0 0 0 0 0 0 0 0 0 0 0 0 0 0 0 0 0 0 0 0 0 0 0 0 0 0 0 0 0 0
0 -0 -0 -0 -0 0 -0 -0 -0 0 0 0 0 0 0 0 0 0 0 0 0 0 0 0 0 0 0 0 0 0 0 0 0 0 0 0 0 0 0 0 0 0 0 0 0 0 0 0 0 0 0 0 0 0
0 -0 -0 -0 -0 -0 -0 0 0 -0 0 0 0 0 0 0 0 0 0 0 0 0 0 0 0 0 0 0 0 0 0 0 0 0 0 0 0 0 0 0 0 0 0 0 0 0 0 0 0 0 0 0 0 0
0 0 0 0 0 0 0 0 0 0 0 0 0 0 0 0 0 0 0 0 0 0 0 0 0 0 0 0 0 0 0 0 0 0 0 0 0 0 0 0 0 0 0 0 0 0 0 0 0 0 0 0 0 0
0 0 0 0 0 0 0 0 0 0 0 0 0 0 0 0 0 0 0 0 0 0 0 0 0 0 0 0 0 0 0 0 0 0 0 0 0 0 0 0 0 0 0 0 0 0 0 0 0 0 0 0 0 0
0 0 0 0 0 0 0 0 0 0 0 0 0 0 0 0 0 0 0 0 0 0 0 0 0 0 0 0 0 0 0 0 0 0 0 0 0 0 0 0 0 0 0 0 0 0 0 0 0 0 0 0 0 0
0 0 0 0 0 0 0 0 0 0 0 0 0 0 0 0 0 0 0 0 0 0 0 0 0 0 0 0 0 0 0 0 0 0 0 0 0 0 0 0 0 0 0 0 0 0 0 0 0 0 0 0 0 0
0 0 0 0 0 0 0 0 0 -0 0 0 0 0 0 0 0 0 0 0 0 0 0 0 0 0 0 0 0 0 0 -0 0 0 0 0 0 0 0 0 0 0 0 0 0 0 0 0 0 0 0 0 0 0
0 0 0 0 0 0 0 0 0 0 0 0 0 0 0 0 0 0 0 0 0 0 0 0 0 0 0 0 0 0 0 0 0 -0 0 0 0 0 0 0 0 0 0 0 0 0 0 0 0 0 0 0 0 0
0 0 0 0 0 0 0 0 0 0 0 0 0 0 0 0 0 0 0 0 0 0 0 0 0 0 0 0 0 0 0 0 0 0 0 0 0 0 0 0 0 0 0 0 0 0 0 0 0 0 0 0 0 0
0 0 0 0 0 0 0 0 -0 -0 0 0 0 0 0 0 0 0 0 0 0 0 0 0 0 0 0 0 0 0 0 0 0 0 0 0 0 0 0 0 0 0 0 0 0 0 0 0 0 0 0 0 0 0
-0 0 0 -0 -0 -0 0 0 0 0 0 0 0 0 0 0 0 0 0 0 0 0 0 0 0 0 0 0 0 0 0 0 0 0 0 0 0 0 0 0 0 0 0 0 0 0 0 0 0 0 0 0 0 0
0 -0 -0 -0 -0 -0 0 0 0 0 0 0 0 0 0 0 0 0 0 0 0 0 0 0 0 0 0 0 0 0 0 0 0 0 0 0 0 -0 0 0 0 0 0 0 0 0 0 0 0 0 0 0 0 0
-0 0 -0 0 0 0 0 0 0 0 0 0 0 0 0 0 0 0 0 0 0 0 0 0 0 0 0 0 0 0 0 0 0 0 0 0 0 0 0 0 0 0 0 0 0 0 0 0 0 0 0 0 0 0
0 0 0 0 0 0 0 0 0 0 0 0 0 0 0 0 0 0 0 0 0 0 0 0 0 0 0 -0 0 0 0 0 0 0 0 0 0 0 0 0 0 0 0 0 0 0 0 0 0 0 0 0 0 0
0 0 0 0 0 0 0 0 0 0 0 0 0 0 0 0 0 0 0 0 0 0 0 0 0 0 0 0 0 0 0 0 0 0 0 0 0 0 0 0 0 0 0 0 0 0 0 0 0 0 0 0 0 0
0 0 0 0 0 0 0 0 0 0 0 0 0 0 0 0 0 0 0 0 0 0 0 0 0 0 0 0 0 0 0 0 0 0 0 0 0 0 0 0 0 0 0 0 0 0 0 0 0 0 0 0 0 0
0 0 0 0 0 0 0 0 0 0 0 0 0 -0 -0 -0 -0 -0 -0 0 0 0 0 0 0 0 0 0 0 0 0 0 0 0 0 0 0 0 0 0 0 0 0 0 0 0 0 0 0 0 0 0 0 0
0 0 -0 -0 -0 -0 -0 0 0 0 -0 0 -0 -0 -0 -0 -0 -0 -0 -0 0 0 0 0 0 0 0 0 0 0 0 0 0 0 0 0 0 0 0 0 0 0 0 0 0 0 0 0 0 0 0 0 0 0
-0 0 -0 0 -0 0 0 -0 -0 -0 -0 -0 -0 -0 -0 0 0 -0 -0 0 0 0 0 0 0 0 0 0 0 0 0 0 0 0 0 0 0 0 0 0 0 0 0 0 0 0 0 0 0 0 0 0 0 0
-0 -0 0 0 0 0 -0 -0 -0 -0 -0 -0 -0 -0 -0 -0 -0 -0 -0 0 0 0 0 0 0 0 0 0 0 0 0 0 0 0 0 0 0 0 0 0 0 0 0 0 0 0 0 0 0 0 0 0 0 0
0 0 0 0 0 0 0 0 -0 -0 -0 -0 -0 -0 -0 -0 -0 0 0 0 0 0 0 0 0 0 0 0 0 0 0 0 0 0 0 0 0 0 0 0 0 0 0 0 0 0 0 0 0 0 0 0 0 0
0 0 0 0 0 0 0 0 -0 -0 -0 -0 -0 -0 0 0 0 0 0 0 0 0 0 0 0 0 0 0 0 0 0 0 0 0 0 0 0 0 0 0 0 0 0 0 0 0 0 0 0 0 0 0 0 0
0 0 0 0 0 0 -0 -0 -0 0 -0 0 -0 0 -0 0 0 0 0 0 0 0 0 0 0 0 0 0 0 0 0 0 0 0 0 0 0 0 0 0 0 0 0 0 0 0 0 0 0 0 0 0 0 0
0 0 0 0 -0 -0 -0 -0 -0 -0 -0 -0 -0 0 0 0 0 0 0 0 0 0 0 0 0 0 0 0 0 0 0 0 0 0 0 0 0 0 0 0 0 0 0 0 0 0 0 0 0 0 0 0 0 0
0 0 0 0 -0 -0 -0 -0 -0 -0 -0 -0 0 0 0 0 0 0 0 0 0 0 0 0 0 0 0 0 0 0 0 0 0 0 0 0 0 0 0 0 0 0 0 0 0 0 0 0 0 0 0 0 0 0
Wind_Speed_500mb
70 66 66 61 61 63 62 59 55 54 56 57 59 57 55 60 81 90 96 77 92 24 38 53 57 39 44 52 10 11 13 10 11 13 7 7 6 9 8 9 6 12 10 8 8 9 14 9 26 11 11 33 33 27
66 65 60 66 62 62 62 62 61 62 61 61 62 63 64 65 60 68 63 81 75 61 11 58 64 70 69 65 49 25 10 7 15 6 6 5 5 1 10 6 8 11 11 5 11 8 7 17 20 61 47 47 33 35
67 65 71 72 67 63 62 62 61 63 64 65 67 69 70 68 66 67 60 59 70 55 40 60 36 69 62 63 64 35 24 27 11 12 5 5 7 8 7 11 13 9 7 8 2 12 23 36 38 61 46 55 28 39
71 70 68 66 65 65 64 65 65 64 64 65 68 69 69 69 66 66 69 58 72 22 8 9 57 59 73 71 70 70 58 35 38 19 14 4 5 10 8 10 12 14 7 10 12 25 43 50 34 35 52 42 41 19
66 66 60 46 45 54 59 63 67 63 64 68 72 76 77 74 69 62 63 59 58 30 8 12 27 50 86 84 82 77 72 45 34 1 4 5 7 3 5 4 6 13 15 8 12 25 8 29 53 61 43 37 18 19
48 28 29 32 34 40 45 51 50 55 60 66 67 61 72 76 71 70 30 70 71 42 7 2 14 31 68 77 84 71 66 53 37 13 6 12 18 9 6 6 10 36 39 21 8 31 46 63 64 28 16 12 1 5
22 28 34 33 30 35 41 46 50 52 53 56 66 67 62 70 82 68 16 18 72 57 2 2 5 8 52 52 65 55 51 38 28 14 12 10 11 15 4 7 11 23 27 34 36 44 38 47 28 46 22 14 19 20
17 14 16 16 21 24 24 34 46 59 66 68 68 74 72 67 77 51 17 17 69 46 8 5 5 4 43 16 20 53 32 28 14 11 11 6 4 7 8 12 45 57 62 59 56 40 36 46 41 28 16 25 12 14
26 27 24 28 23 17 10 7 18 47 64 71 80 78 66 56 32 47 18 62 59 21 10 7 6 5 35 10 15 17 23 6 15 6 6 11 6 11 15 29 44 49 44 48 34 36 36 31 28 19 19 19 22 27
50 48 56 78 48 44 39 51 65 76 85 91 89 33 16 33 72 79 42 15 15 9 8 4 10 4 19 8 5 7 12 5 6 10 11 5 7 16 19 31 38 35 35 36 32 28 24 27 28 28 26 23 23 33
51 51 51 71 72 53 47 92 100 103 87 51 13 21 103 86 50 11 10 9 11 8 17 11 13 6 13 5 6 13 5 6 7 7 11 7 7 3 10 16 22 26 22 25 35 45 45 41 38 35 31 31 35 39
42 45 37 34 47 74 63 72 56 50 45 53 56 64 44 14 8 7 6 5 5 7 10 9 12 11 12 8 5 4 5 3 8 10 7 7 4 14 15 17 19 18 18 19 18 20 17 29 35 37 40 45 47 50
28 29 33 28 47 55 67 72 77 86 87 52 20 11 11 11 9 4 7 4 5 3 11 12 8 9 9 8 4 4 8 10 11 6 6 4 13 19 19 16 12 11 9 9 9 12 20 30 37 41 52 54 61 67
25 25 23 30 33 34 33 27 42 41 19 18 11 12 7 9 7 6 5 5 8 5 23 25 10 5 6 4 3 7 7 4 6 6 2 5 18 16 13 10 4 2 6 11 17 24 32 38 45 51 57 65 72 76
26 19 18 13 27 28 29 18 27 29 12 12 15 9 8 7 13 15 11 7 13 6 9 13 11 8 5 6 3 2 2 3 3 4 3 12 13 14 14 10 10 14 18 24 28 34 45 53 58 62 66 73 78 81
11 13 21 25 20 12 3 7 22 20 15 14 20 9 18 6 13 19 27 14 22 7 1 8 6 6 6 4 7 6 4 2 3 4 9 11 13 13 11 11 17 24 31 40 48 52 56 61 68 71 69 80 80 79
6 8 13 15 33 25 6 11 17 20 15 12 11 31 15 9 8 17 23 30 22 11 5 5 9 5 4 6 6 7 3 6 10 20 16 13 15 19 18 22 27 32 40 46 53 57 65 72 78 82 83 81 79 75
17 14 13 16 11 13 58 27 17 18 18 25 10 21 30 27 26 26 31 38 15 9 9 8 8 11 8 6 5 6 13 22 27 28 26 22 22 26 33 39 44 50 57 62 66 70 72 75 79 78 77 75 74 70
28 23 14 13 13 12 14 18 18 12 21 11 15 15 16 28 46 39 35 31 41 31 18 11 11 7 5 7 7 19 13 11 23 30 31 29 30 36 43 49 53 57 61 64 68 70 68 69 72 69 67 63 63 57
19 24 28 15 9 13 14 14 14 17 8 12 17 37 28 24 31 41 52 46 40 18 15 10 7 12 13 22 18 8 11 18 25 31 32 32 32 34 40 46 51 54 59 60 62 62 62 61 57 55 52 51 50 51
12 21 28 33 48 29 16 11 16 14 18 11 11 8 14 26 46 42 35 39 31 16 7 17 24 21 15 15 15 10 7 6 10 17 28 32 31 36 39 41 45 49 54 55 55 54 51 50 46 42 41 43 42 43
22 24 28 26 17 15 19 22 19 17 11 17 11 11 12 8 13 28 31 36 16 21 17 24 25 27 29 29 23 19 15 13 21 26 30 33 39 38 38 38 41 45 45 45 46 46 45 40 37 36 34 37 33 34
10 14 17 18 14 14 8 12 9 9 7 4 7 8 8 10 12 15 14 17 17 26 21 19 19 19 21 20 19 22 20 22 29 29 29 32 34 35 36 38 39 41 42 39 35 35 36 32 28 27 28 30 30 33
15 15 16 14 20 5 9 13 11 10 11 7 6 7 7 8 11 14 7 8 25 29 26 18 11 17 22 26 31 28 25 22 29 31 30 33 38 38 36 37 34 33 30 28 27 29 29 27 25 24 24 24 25 24
13 22 15 14 20 13 12 9 11 9 8 9 7 7 6 9 6 7 4 13 29 32 26 21 21 25 31 30 28 26 19 19 28 36 33 32 37 37 37 35 34 32 24 18 21 21 23 23 22 22 22 20 21 21
16 24 13 9 10 9 6 7 8 7 6 7 8 6 8 6 8 7 5 15 18 20 20 19 22 27 31 29 30 30 28 25 26 35 33 26 26 27 29 27 23 21 18 13 11 14 19 20 19 19 19 18 16 13
12 9 17 19 9 13 13 15 12 11 9 7 5 7 7 10 6 3 3 14 12 12 11 12 15 22 26 26 25 23 19 16 18 27 26 22 22 21 18 15 14 17 17 16 14 11 10 14 14 14 13 14 13 11
14 18 11 20 22 24 8 8 9 8 5 10 8 10 8 7 3 3 5 11 15 19 22 23 23 23 24 25 25 24 24 24 22 19 16 14 15 14 15 12 11 12 12 14 14 13 12 10 9 9 8 6 4 3
18 10 11 15 16 19 20 6 6 10 9 6 7 4 6 8 8 14 15 13 12 13 17 18 20 19 17 17 15 14 14 14 11 10 10 11 8 11 11 10 8 7 8 7 7 9 9 9 8 7 7 5 3 5
11 14 14 13 10 10 19 18 16 18 21 23 20 37 39 34 26 21 17 15 14 15 17 14 14 15 14 14 16 14 11 9 9 10 9 9 6 5 5 6 7 7 6 6 6 5 4 4 4 3 3 4 7 10
11 12 15 15 12 29 42 46 44 43 45 44 40 40 25 17 18 16 14 14 12 14 15 13 11 10 13 12 11 11 10 11 12 11 10 8 6 4 4 3 3 3 2 1 1 1 1 2 4 5 6 8 11 12
13 12 14 9 8 15 9 8 11 11 9 10 11 11 8 6 6 5 7 11 11 11 8 8 6 8 11 12 12 11 10 10 10 10 9 8 7 6 4 2 1 2 2 2 3 5 6 8 10 11 12 13 14 15
25 35 27 15 9 8 7 6 7 6 7 5 5 5 5 4 5 6 7 8 6 4 6 7 5 7 10 11 11 10 8 8 8 8 7 7 7 7 7 5 3 3 4 5 6 6 7 8 9 11 12 14 15 15
Wind_Direction_500mb
285 283 281 279 272 267 262 257 250 243 240 236 233 233 233 224 217 216 217 216 209 231 231 219 216 210 195 195 178 167 192 195 169 186 201 185 194 227 201 248 210 194 187 201 202 221 263 3 2 307 283 319 349 359
283 284 280 283 280 266 260 253 249 246 241 237 230 226 227 225 223 214 213 214 215 220 249 222 220 220 213 201 192 194 205 156 157 156 193 186 214 116 181 223 232 256 194 220 190 223 204 12 285 289 268 275 297 349
286 285 282 281 274 264 255 253 249 246 241 235 231 226 223 220 218 215 207 204 201 211 232 245 225 215 214 212 213 204 235 216 223 199 158 237 221 143 175 223 223 253 181 218 115 251 242 258 295 280 288 261 267 311
286 285 281 277 271 265 260 246 247 244 237 232 225 221 218 214 212 211 210 197 195 180 230 223 233 224 213 210 216 224 232 236 233 224 205 224 217 182 215 212 183 215 177 206 244 278 281 272 276 328 326 295 267 280
286 286 287 292 275 260 251 245 242 238 230 225 222 220 217 214 208 207 214 207 178 176 170 192 234 231 215 210 213 221 230 237 241 178 218 219 216 211 275 326 219 205 225 203 253 247 249 286 317 325 324 314 300 251
294 274 288 284 277 263 252 248 240 230 223 219 213 210 209 206 201 192 190 220 220 221 246 289 246 232 207 212 215 223 227 220 218 227 202 217 222 200 210 248 261 242 252 230 239 278 291 296 307 335 294 276 246 95
308 288 290 291 278 267 255 241 233 224 216 215 210 202 195 193 194 182 172 196 203 196 170 256 273 243 206 199 212 217 222 221 223 223 217 219 219 200 209 222 280 289 287 274 267 278 290 291 304 309 302 156 115 75
357 352 340 336 306 278 265 251 238 224 214 207 198 189 189 192 184 180 148 178 179 171 216 190 256 134 170 165 180 209 212 205 223 209 209 199 186 182 245 229 233 248 254 255 259 260 273 289 286 274 228 198 195 140
64 57 42 8 34 85 62 331 222 197 185 179 173 171 169 168 158 166 163 155 158 166 184 187 158 171 162 135 158 161 185 181 193 223 202 171 195 219 218 223 227 237 230 240 247 260 278 265 232 212 200 180 181 153
82 64 68 82 75 82 84 82 107 129 141 148 148 135 113 127 129 129 131 139 161 211 208 213 137 188 155 112 93 134 151 201 204 205 175 187 251 233 231 250 263 272 247 249 270 266 246 219 204 198 189 184 173 151
94 84 74 77 58 47 70 104 117 115 117 113 85 95 125 127 127 99 132 168 156 183 179 185 181 133 154 131 135 208 147 164 175 232 180 225 252 138 317 289 290 282 272 260 260 265 267 259 205 182 161 160 153 148
100 75 73 80 57 55 102 111 102 105 105 113 113 111 110 90 92 115 140 145 159 175 144 137 152 139 128 123 100 200 138 120 224 138 187 243 86 10 343 317 303 290 281 286 277 260 238 203 188 174 159 155 148 144
107 73 85 81 87 55 85 99 100 110 112 111 94 74 46 2 75 91 158 125 114 108 151 150 114 119 131 155 130 156 159 203 117 202 210 42 7 355 341 318 314 306 288 266 245 210 183 169 161 160 150 145 143 140
103 86 67 43 36 53 66 100 115 127 86 52 53 59 65 2 29 25 341 15 41 349 130 116 103 123 141 88 113 126 207 149 220 224 176 2 360 349 347 357 332 68 132 144 150 157 151 150 141 143 145 144 143 138
69 99 71 64 29 32 37 60 142 155 91 66 35 50 56 32 14 358 8 59 18 72 153 125 98 98 70 102 17 31 82 98 90 284 327 344 355 7 20 46 90 107 123 126 133 136 134 132 130 132 138 140 137 134
45 59 47 31 7 338 49 60 86 86 62 64 44 25 360 28 3 11 4 10 24 30 114 57 97 83 46 63 54 26 65 20 320 357 8 6 33 44 65 90 109 121 124 126 124 124 127 131 132 125 131 130 130 134
42 62 22 36 30 30 104 86 53 56 60 56 45 24 45 42 359 342 352 348 2 7 50 25 56 56 15 60 55 20 61 344 44 54 55 56 73 88 101 110 116 121 122 121 122 124 123 126 128 132 124 124 127 127
58 36 24 14 7 49 52 48 73 63 63 46 76 49 52 46 17 14 14 20 39 59 46 59 48 45 34 40 29 351 59 68 84 85 89 92 96 102 108 113 117 120 119 120 122 123 125 127 125 121 122 124 123 122
46 35 23 27 59 78 61 44 48 87 52 58 43 47 41 37 34 43 45 54 76 90 85 55 56 41 10 7 333 357 42 91 89 90 95 104 113 117 117 119 118 117 118 122 125 124 124 124 124 126 125 126 121 122
47 46 49 49 76 80 75 55 63 84 76 118 85 68 65 43 31 35 38 47 54 60 51 45 35 350 327 328 348 322 118 127 122 107 97 105 117 125 123 124 121 124 123 124 123 124 124 124 124 125 125 123 125 125
72 67 72 74 62 67 78 72 64 96 123 101 108 74 68 39 37 34 29 36 55 39 60 21 13 24 44 64 88 111 126 161 144 137 123 112 119 122 123 125 128 126 123 123 122 122 121 119 121 122 123 124 124 122
84 87 64 50 65 69 64 43 100 115 90 131 102 63 53 38 25 26 38 40 57 30 28 24 34 47 54 57 64 80 91 113 125 129 129 128 123 122 122 126 129 123 122 120 120 118 117 119 123 126 126 124 125 122
66 51 53 42 73 63 57 47 71 45 78 74 73 57 41 45 38 34 69 42 40 14 25 35 37 53 67 76 83 87 96 112 115 118 123 122 120 120 123 124 124 122 118 115 116 117 120 121 123 126 125 125 128 127
71 54 35 45 46 67 74 37 45 52 54 35 61 76 56 60 49 64 71 47 6 19 30 41 69 84 83 79 72 76 84 100 110 112 116 121 118 113 116 114 112 108 108 116 124 123 121 124 124 124 124 128 131 132
77 13 28 13 26 54 43 27 12 44 55 31 66 43 22 49 69 64 68 8 11 22 30 48 67 79 83 81 81 82 89 104 112 109 106 110 113 116 113 111 108 105 104 115 121 124 126 126 127 128 127 130 132 132
69 23 47 24 17 65 28 62 40 30 42 57 41 30 50 65 65 57 48 358 4 18 33 53 75 85 83 83 87 88 89 98 110 106 100 103 106 107 107 108 110 114 118 114 117 130 131 131 132 132 132 129 123 122
59 358 51 40 65 85 72 62 59 65 60 36 333 33 58 66 61 64 29 22 27 43 57 71 84 90 92 88 84 82 82 89 96 98 101 103 102 98 96 101 119 123 127 128 128 124 130 135 136 135 139 145 146 144
65 41 67 6 59 42 89 47 38 36 357 9 57 39 97 135 172 88 96 72 73 83 89 88 86 87 88 87 84 80 79 76 76 80 84 93 96 100 103 105 114 122 126 136 138 138 139 142 146 148 149 154 157 187
50 57 66 33 54 49 40 65 22 18 7 24 103 100 89 75 101 121 106 91 85 82 83 81 80 74 73 72 67 62 64 70 70 69 74 85 76 92 96 98 104 116 119 126 147 154 155 163 171 178 183 192 229 271
52 37 89 56 56 41 24 40 65 70 85 89 93 107 97 96 95 94 92 87 77 65 59 64 78 66 56 55 49 47 50 52 46 45 60 59 72 80 96 100 102 115 127 132 118 131 154 160 178 200 241 263 273 279
80 72 71 63 77 108 96 85 86 88 93 97 112 106 106 103 97 91 91 84 71 53 49 60 56 46 29 30 32 30 33 39 38 44 52 61 72 87 92 74 56 61 83 91 112 151 202 239 260 273 278 283 288 293
47 68 113 98 135 152 66 70 75 77 69 71 73 96 97 110 100 118 116 103 76 38 24 20 38 45 28 29 33 35 34 31 28 27 30 28 19 21 22 12 325 297 257 240 251 259 263 264 266 273 280 286 291 297
81 85 93 98 108 163 133 126 80 88 77 76 73 59 63 78 111 137 123 147 144 27 26 23 54 41 33 35 33 27 23 21 21 19 8 6 9 0 349 343 334 319 293 274 271 268 269 273 278 283 290 296 300 302
Wind_Speed_850mb
70 66 66 61 61 63 62 59 55 54 56 57 59 57 55 60 81 90 96 77 92 24 38 53 57 39 44 52 10 11 13 10 11 13 7 7 6 9 8 9 6 12 10 8 8 9 14 9 26 11 11 33 33 27
66 65 60 66 62 62 62 62 61 62 61 61 62 63 64 65 60 68 63 81 75 61 11 58 64 70 69 65 49 25 10 7 15 6 6 5 5 1 10 6 8 11 11 5 11 8 7 17 20 61 47 47 33 35
67 65 71 72 67 63 62 62 61 63 64 65 67 69 70 68 66 67 60 59 70 55 40 60 36 69 62 63 64 35 24 27 11 12 5 5 7 8 7 11 13 9 7 8 2 12 23 36 38 61 46 55 28 39
71 70 68 66 65 65 64 65 65 64 64 65 68 69 69 69 66 66 69 58 72 22 8 9 57 59 73 71 70 70 58 35 38 19 14 4 5 10 8 10 12 14 7 10 12 25 43 50 34 35 52 42 41 19
66 66 60 46 45 54 59 63 67 63 64 68 72 76 77 74 69 62 63 59 58 30 8 12 27 50 86 84 82 77 72 45 34 1 4 5 7 3 5 4 6 13 15 8 12 25 8 29 53 61 43 37 18 19
48 28 29 32 34 40 45 51 50 55 60 66 67 61 72 76 71 70 30 70 71 42 7 2 14 31 68 77 84 71 66 53 37 13 6 12 18 9 6 6 10 36 39 21 8 31 46 63 64 28 16 12 1 5
22 28 34 33 30 35 41 46 50 52 53 56 66 67 62 70 82 68 16 18 72 57 2 2 5 8 52 52 65 55 51 38 28 14 12 10 11 15 4 7 11 23 27 34 36 44 38 47 28 46 22 14 19 20
17 14 16 16 21 24 24 34 46 59 66 68 68 74 72 67 77 51 17 17 69 46 8 5 5 4 43 16 20 53 32 28 14 11 11 6 4 7 8 12 45 57 62 59 56 40 36 46 41 28 16 25 12 14
26 27 24 28 23 17 10 7 18 47 64 71 80 78 66 56 32 47 18 62 59 21 10 7 6 5 35 10 15 17 23 6 15 6 6 11 6 11 15 29 44 49 44 48 34 36 36 31 28 19 19 19 22 27
50 48 56 78 48 44 39 51 65 76 85 91 89 33 16 33 72 79 42 15 15 9 8 4 10 4 19 8 5 7 12 5 6 10 11 5 7 16 19 31 38 35 35 36 32 28 24 27 28 28 26 23 23 33
51 51 51 71 72 53 47 92 100 103 87 51 13 21 103 86 50 11 10 9 11 8 17 11 13 6 13 5 6 13 5 6 7 7 11 7 7 3 10 16 22 26 22 25 35 45 45 41 38 35 31 31 35 39
42 45 37 34 47 74 63 72 56 50 45 53 56 64 44 14 8 7 6 5 5 7 10 9 12 11 12 8 5 4 5 3 8 10 7 7 4 14 15 17 19 18 18 19 18 20 17 29 35 37 40 45 47 50
28 29 33 28 47 55 67 72 77 86 87 52 20 11 11 11 9 4 7 4 5 3 11 12 8 9 9 8 4 4 8 10 11 6 6 4 13 19 19 16 12 11 9 9 9 12 20 30 37 41 52 54 61 67
25 25 23 30 33 34 33 27 42 41 19 18 11 12 7 9 7 6 5 5 8 5 23 25 10 5 6 4 3 7 7 4 6 6 2 5 18 16 13 10 4 2 6 11 17 24 32 38 45 51 57 65 72 76
26 19 18 13 27 28 29 18 27 29 12 12 15 9 8 7 13 15 11 7 13 6 9 13 11 8 5 6 3 2 2 3 3 4 3 12 13 14 14 10 10 14 18 24 28 34 45 53 58 62 66 73 78 81
11 13 21 25 20 12 3 7 22 20 15 14 20 9 18 6 13 19 27 14 22 7 1 8 6 6 6 4 7 6 4 2 3 4 9 11 13 13 11 11 17 24 31 40 48 52 56 61 68 71 69 80 80 79
6 8 13 15 33 25 6 11 17 20 15 12 11 31 15 9 8 17 23 30 22 11 5 5 9 5 4 6 6 7 3 6 10 20 16 13 15 19 18 22 27 32 40 46 53 57 65 72 78 82 83 81 79 75
17 14 13 16 11 13 58 27 17 18 18 25 10 21 30 27 26 26 31 38 15 9 9 8 8 11 8 6 5 6 13 22 27 28 26 22 22 26 33 39 44 50 57 62 66 70 72 75 79 78 77 75 74 70
28 23 14 13 13 12 14 18 18 12 21 11 15 15 16 28 46 39 35 31 41 31 18 11 11 7 5 7 7 19 13 11 23 30 31 29 30 36 43 49 53 57 61 64 68 70 68 69 72 69 67 63 63 57
19 24 28 15 9 13 14 14 14 17 8 12 17 37 28 24 31 41 52 46 40 18 15 10 7 12 13 22 18 8 11 18 25 31 32 32 32 34 40 46 51 54 59 60 62 62 62 61 57 55 52 51 50 51
12 21 28 33 48 29 16 11 16 14 18 11 11 8 14 26 46 42 35 39 31 16 7 17 24 21 15 15 15 10 7 6 10 17 28 32 31 36 39 41 45 49 54 55 55 54 51 50 46 42 41 43 42 43
22 24 28 26 17 15 19 22 19 17 11 17 11 11 12 8 13 28 31 36 16 21 17 24 25 27 29 29 23 19 15 13 21 26 30 33 39 38 38 38 41 45 45 45 46 46 45 40 37 36 34 37 33 34
10 14 17 18 14 14 8 12 9 9 7 4 7 8 8 10 12 15 14 17 17 26 21 19 19 19 21 20 19 22 20 22 29 29 29 32 34 35 36 38 39 41 42 39 35 35 36 32 28 27 28 30 30 33
15 15 16 14 20 5 9 13 11 10 11 7 6 7 7 8 11 14 7 8 25 29 26 18 11 17 22 26 31 28 25 22 29 31 30 33 38 38 36 37 34 33 30 28 27 29 29 27 25 24 24 24 25 24
13 22 15 14 20 13 12 9 11 9 8 9 7 7 6 9 6 7 4 13 29 32 26 21 21 25 31 30 28 26 19 19 28 36 33 32 37 37 37 35 34 32 24 18 21 21 23 23 22 22 22 20 21 21
16 24 13 9 10 9 6 7 8 7 6 7 8 6 8 6 8 7 5 15 18 20 20 19 22 27 31 29 30 30 28 25 26 35 33 26 26 27 29 27 23 21 18 13 11 14 19 20 19 19 19 18 16 13
12 9 17 19 9 13 13 15 12 11 9 7 5 7 7 10 6 3 3 14 12 12 11 12 15 22 26 26 25 23 19 16 18 27 26 22 22 21 18 15 14 17 17 16 14 11 10 14 14 14 13 14 13 11
14 18 11 20 22 24 8 8 9 8 5 10 8 10 8 7 3 3 5 11 15 19 22 23 23 23 24 25 25 24 24 24 22 19 16 14 15 14 15 12 11 12 12 14 14 13 12 10 9 9 8 6 4 3
18 10 11 15 16 19 20 6 6 10 9 6 7 4 6 8 8 14 15 13 12 13 17 18 20 19 17 17 15 14 14 14 11 10 10 11 8 11 11 10 8 7 8 7 7 9 9 9 8 7 7 5 3 5
11 14 14 13 10 10 19 18 16 18 21 23 20 37 39 34 26 21 17 15 14 15 17 14 14 15 14 14 16 14 11 9 9 10 9 9 6 5 5 6 7 7 6 6 6 5 4 4 4 3 3 4 7 10
11 12 15 15 12 29 42 46 44 43 45 44 40 40 25 17 18 16 14 14 12 14 15 13 11 10 13 12 11 11 10 11 12 11 10 8 6 4 4 3 3 3 2 1 1 1 1 2 4 5 6 8 11 12
13 12 14 9 8 15 9 8 11 11 9 10 11 11 8 6 6 5 7 11 11 11 8 8 6 8 11 12 12 11 10 10 10 10 9 8 7 6 4 2 1 2 2 2 3 5 6 8 10 11 12 13 14 15
25 35 27 15 9 8 7 6 7 6 7 5 5 5 5 4 5 6 7 8 6 4 6 7 5 7 10 11 11 10 8 8 8 8 7 7 7 7 7 5 3 3 4 5 6 6 7 8 9 11 12 14 15 15
Wind_Direction_850mb
285 283 281 279 272 267 262 257 250 243 240 236 233 233 233 224 217 216 217 216 209 231 231 219 216 210 195 195 178 167 192 195 169 186 201 185 194 227 201 248 210 194 187 201 202 221 263 3 2 307 283 319 349 359
283 284 280 283 280 266 260 253 249 246 241 237 230 226 227 225 223 214 213 214 215 220 249 222 220 220 213 201 192 194 205 156 157 156 193 186 214 116 181 223 232 256 194 220 190 223 204 12 285 289 268 275 297 349
286 285 282 281 274 264 255 253 249 246 241 235 231 226 223 220 218 215 207 204 201 211 232 245 225 215 214 212 213 204 235 216 223 199 158 237 221 143 175 223 223 253 181 218 115 251 242 258 295 280 288 261 267 311
286 285 281 277 271 265 260 246 247 244 237 232 225 221 218 214 212 211 210 197 195 180 230 223 233 224 213 210 216 224 232 236 233 224 205 224 217 182 215 212 183 215 177 206 244 278 281 272 276 328 326 295 267 280
286 286 287 292 275 260 251 245 242 238 230 225 222 220 217 214 208 207 214 207 178 176 170 192 234 231 215 210 213 221 230 237 241 178 218 219 216 211 275 326 219 205 225 203 253 247 249 286 317 325 324 314 300 251
294 274 288 284 277 263 252 248 240 230 223 219 213 210 209 206 201 192 190 220 220 221 246 289 246 232 207 212 215 223 227 220 218 227 202 217 222 200 210 248 261 242 252 230 239 278 291 296 307 335 294 276 246 95
308 288 290 291 278 267 255 241 233 224 216 215 210 202 195 193 194 182 172 196 203 196 170 256 273 243 206 199 212 217 222 221 223 223 217 219 219 200 209 222 280 289 287 274 267 278 290 291 304 309 302 156 115 75
357 352 340 336 306 278 265 251 238 224 214 207 198 189 189 192 184 180 148 178 179 171 216 190 256 134 170 165 180 209 212 205 223 209 209 199 186 182 245 229 233 248 254 255 259 260 273 289 286 274 228 198 195 140
64 57 42 8 34 85 62 331 222 197 185 179 173 171 169 168 158 166 163 155 158 166 184 187 158 171 162 135 158 161 185 181 193 223 202 171 195 219 218 223 227 237 230 240 247 260 278 265 232 212 200 180 181 153
82 64 68 82 75 82 84 82 107 129 141 148 148 135 113 127 129 129 131 139 161 211 208 213 137 188 155 112 93 134 151 201 204 205 175 187 251 233 231 250 263 272 247 249 270 266 246 219 204 198 189 184 173 151
94 84 74 77 58 47 70 104 117 115 117 113 85 95 125 127 127 99 132 168 156 183 179 185 181 133 154 131 135 208 147 164 175 232 180 225 252 138 317 289 290 282 272 260 260 265 267 259 205 182 161 160 153 148
100 75 73 80 57 55 102 111 102 105 105 113 113 111 110 90 92 115 140 145 159 175 144 137 152 139 128 123 100 200 138 120 224 138 187 243 86 10 343 317 303 290 281 286 277 260 238 203 188 174 159 155 148 144
107 73 85 81 87 55 85 99 100 110 112 111 94 74 46 2 75 91 158 125 114 108 151 150 114 119 131 155 130 156 159 203 117 202 210 42 7 355 341 318 314 306 288 266 245 210 183 169 161 160 150 145 143 140
103 86 67 43 36 53 66 100 115 127 86 52 53 59 65 2 29 25 341 15 41 349 130 116 103 123 141 88 113 126 207 149 220 224 176 2 360 349 347 357 332 68 132 144 150 157 151 150 141 143 145 144 143 138
69 99 71 64 29 32 37 60 142 155 91 66 35 50 56 32 14 358 8 59 18 72 153 125 98 98 70 102 17 31 82 98 90 284 327 344 355 7 20 46 90 107 123 126 133 136 134 132 130 132 138 140 137 134
45 59 47 31 7 338 49 60 86 86 62 64 44 25 360 28 3 11 4 10 24 30 114 57 97 83 46 63 54 26 65 20 320 357 8 6 33 44 65 90 109 121 124 126 124 124 127 131 132 125 131 130 130 134
42 62 22 36 30 30 104 86 53 56 60 56 45 24 45 42 359 342 352 348 2 7 50 25 56 56 15 60 55 20 61 344 44 54 55 56 73 88 101 110 116 121 122 121 122 124 123 126 128 132 124 124 127 127
58 36 24 14 7 49 52 48 73 63 63 46 76 49 52 46 17 14 14 20 39 59 46 59 48 45 34 40 29 351 59 68 84 85 89 92 96 102 108 113 117 120 119 120 122 123 125 127 125 121 122 124 123 122
46 35 23 27 59 78 61 44 48 87 52 58 43 47 41 37 34 43 45 54 76 90 85 55 56 41 10 7 333 357 42 91 89 90 95 104 113 117 117 119 118 117 118 122 125 124 124 124 124 126 125 126 121 122
47 46 49 49 76 80 75 55 63 84 76 118 85 68 65 43 31 35 38 47 54 60 51 45 35 350 327 328 348 322 118 127 122 107 97 105 117 125 123 124 121 124 123 124 123 124 124 124 124 125 125 123 125 125
72 67 72 74 62 67 78 72 64 96 123 101 108 74 68 39 37 34 29 36 55 39 60 21 13 24 44 64 88 111 126 161 144 137 123 112 119 122 123 125 128 126 123 123 122 122 121 119 121 122 123 124 124 122
84 87 64 50 65 69 64 43 100 115 90 131 102 63 53 38 25 26 38 40 57 30 28 24 34 47 54 57 64 80 91 113 125 129 129 128 123 122 122 126 129 123 122 120 120 118 117 119 123 126 126 124 125 122
66 51 53 42 73 63 57 47 71 45 78 74 73 57 41 45 38 34 69 42 40 14 25 35 37 53 67 76 83 87 96 112 115 118 123 122 120 120 123 124 124 122 118 115 116 117 120 121 123 126 125 125 128 127
71 54 35 45 46 67 74 37 45 52 54 35 61 76 56 60 49 64 71 47 6 19 30 41 69 84 83 79 72 76 84 100 110 112 116 121 118 113 116 114 112 108 108 116 124 123 121 124 124 124 124 128 131 132
77 13 28 13 26 54 43 27 12 44 55 31 66 43 22 49 69 64 68 8 11 22 30 48 67 79 83 81 81 82 89 104 112 109 106 110 113 116 113 111 108 105 104 115 121 124 126 126 127 128 127 130 132 132
69 23 47 24 17 65 28 62 40 30 42 57 41 30 50 65 65 57 48 358 4 18 33 53 75 85 83 83 87 88 89 98 110 106 100 103 106 107 107 108 110 114 118 114 117 130 131 131 132 132 132 129 123 122
59 358 51 40 65 85 72 62 59 65 60 36 333 33 58 66 61 64 29 22 27 43 57 71 84 90 92 88 84 82 82 89 96 98 101 103 102 98 96 101 119 123 127 128 128 124 130 135 136 135 139 145 146 144
65 41 67 6 59 42 89 47 38 36 357 9 57 39 97 135 172 88 96 72 73 83 89 88 86 87 88 87 84 80 79 76 76 80 84 93 96 100 103 105 114 122 126 136 138 138 139 142 146 148 149 154 157 187
50 57 66 33 54 49 40 65 22 18 7 24 103 100 89 75 101 121 106 91 85 82 83 81 80 74 73 72 67 62 64 70 70 69 74 85 76 92 96 98 104 116 119 126 147 154 155 163 171 178 183 192 229 271
52 37 89 56 56 41 24 40 65 70 85 89 93 107 97 96 95 94 92 87 77 65 59 64 78 66 56 55 49 47 50 52 46 45 60 59 72 80 96 100 102 115 127 132 118 131 154 160 178 200 241 263 273 279
80 72 71 63 77 108 96 85 86 88 93 97 112 106 106 103 97 91 91 84 71 53 49 60 56 46 29 30 32 30 33 39 38 44 52 61 72 87 92 74 56 61 83 91 112 151 202 239 260 273 278 283 288 293
47 68 113 98 135 152 66 70 75 77 69 71 73 96 97 110 100 118 116 103 76 38 24 20 38 45 28 29 33 35 34 31 28 27 30 28 19 21 22 12 325 297 257 240 251 259 263 264 266 273 280 286 291 297
81 85 93 98 108 163 133 126 80 88 77 76 73 59 63 78 111 137 123 147 144 27 26 23 54 41 33 35 33 27 23 21 21 19 8 6 9 0 349 343 334 319 293 274 271 268 269 273 278 283 290 296 300 302